COSMOS 2251 DEB, 34861

Orbit data source: Space-Track

COSMOS 2251 DEB, 34861 is space debris in LEO originally from a launch on Wed, 16 Jun 1993 UTC launched from the Plesetsk Missile And Space Complex (PKMTR). The debris from Iridium 33, an American commercial communications satellite, has been tracked extensively since its accidental collision with the defunct Russian satellite Cosmos 2251 in 2009. This event, occurring at high speed in low Earth orbit (LEO), generated thousands of pieces of space debris, significantly increasing the risk of further collisions. The Iridium 33 debris cloud has impacted space traffic management and orbital debris mitigation strategies, making it a subject of ongoing study in space situational awareness.

Loading next visibility...
Identifier
34861, 1993-036ACF
Orbit
LEO
Country
Flag of CISCIS
Related business
Manufacturer
Unknown
Mission
Spacecraft
Bus & Motor
Unknown
Mass
Unknown
Launch date (UTC)
1993-06-16 (33 years ago)
Launch vehicle
Unknown
Launch site
Plesetsk Missile And Space Complex (PKMTR)
Object type
Payload
Rocket body
Debris
Shape & HBR
Unknown shape, 0.1 m
Radar Cross Section
Small (<0.1 m²)

Expand to show TLE details & history
Last TLE update: 1 day ago

TLE from 1 day ago
0 COSMOS 2251 DEB
1 34861U 93036ACF 26121.33467914  .00143764  00000-0  65118-2 0  9990
2 34861  74.0043 121.7988 0007128 240.8070 181.6576 15.20143582902014
Epoch: 2026-05-01T08:01Z
TLE epoch observation values (Epoch: 2026-05-01T08:01:56.277Z)
Latitude
58.58169°
Longitude
169.8671°
Altitude
519.871 km
Speed
7.607 km/s
True Right ascension
09h 58m 28s
True Declination
58° 25' 23"
Sunlit
Object was in daylight at epoch
Visualization orbit readout
Latitude
Unknown
Longitude
Unknown
Altitude
Unknown
Speed
Unknown
Apparent Right ascension
Unknown
Apparent Declination
Unknown
Sunlit
N/A
Visualization observer readout
Local Sidereal Time
19:49:03
Azimuth
Unknown
Elevation
Unknown
Doppler factor
Unknown
Orbital elements
Apogee altitude
507.847 km
Perigee altitude
498.037 km
Semi-major axis
6,881.079 km
Eccentricity
0.00071
Inclination
74.0043°
RAAN
121.7988°
Arg. of periapsis
240.807°
True anomaly
181.65524°
Mean anomaly
181.6576°
Eccentric anomaly
181.65642°
Mean motion
3.80241 °/min
Orbital period
94.68 mins
BSTAR
0.0065118
Loading maneuver chart data...
Computing Atmospheric mass density...
Loading historical data...
Loading historical data...
Loading historical data...
Loading historical data...
Loading historical data...
Loading historical data...
Loading historical data...

Documentation

Showing up to 5 results
|